Regional Weather Roundup
Issued by NWS

Home | Current Version | Previous Version | Text Only | Print | Product List | Glossary On
Versions: 1 2 3 4 5 6 7 8 9 10 11 12 13 14 15 16 17 18 19 20 21 22 23 24 25 26 27 28 29 30 31 32 33 34 35 36 37 38 39 40 41 42 43 44 45 46 47 48 49 50
000
ASUS43 KLSX 051510
RWRMO

WEATHER SUMMARY FOR MISSOURI
NATIONAL WEATHER SERVICE SPRINGFIELD MO
1000 AM CDT THU MAY 05 2016

NOTE: "FAIR" INDICATES FEW OR NO CLOUDS BELOW 12,000 FEET WITH NO
       SIGNIFICANT WEATHER AND/OR OBSTRUCTIONS TO VISIBILITY.
       CURRENT SKY AND/OR WEATHER CONDITIONS ARE NOT AVAILABLE FOR
       CHILLICOTHE AND FARMINGTON.

MOZ001>031-035>038-043-044-053-054-051600-
...NORTHERN AND WESTERN MISSOURI...

CITY           SKY/WX    TMP DP  RH WIND       PRES   REMARKS
KANSAS CTY INT MOSUNNY   62  42  47 VRB3      30.09R
KANSAS C DTWN  SUNNY     63  44  50 CALM      30.09R
LEE`S SUMMIT   SUNNY     62  41  46 VRB3      30.09R
ST JOSEPH      SUNNY     60  44  55 VRB3      30.09S
CHILLICOTHE      N/A     62  38  40 VRB3      30.10R
KIRKSVILLE     SUNNY     56  37  49 NE9       30.09R

$$
MOZ066>068-077>081-088>096-101>105-051600-
...SOUTHWEST MISSOURI...

CITY           SKY/WX    TMP DP  RH WIND       PRES   REMARKS
SPRINGFIELD    SUNNY     63  42  46 NW9       30.06R
JOPLIN         SUNNY     64  46  52 NW9       30.09R
BRANSON        SUNNY     63  41  45 NW8       30.07R

$$
MOZ032>034-039>042-045>050-055>058-069>072-051600-
...CENTRAL MISSOURI...

CITY           SKY/WX    TMP DP  RH WIND       PRES   REMARKS
COLUMBIA       SUNNY     59  39  47 N10       30.06R
JEFFERSON CITY SUNNY     60  36  40 N8        30.06R
ROLLA          SUNNY     57  41  55 N9        30.03R
SEDALIA        SUNNY     61  41  47 N6        30.09R
WARRENSBURG    SUNNY     61  39  44 N5        30.08S
OSAGE BEACH    SUNNY     61  37  41 NE3       30.06S

$$
MOZ051-052-059>065-051600-
...EAST CENTRAL MISSOURI...

CITY           SKY/WX    TMP DP  RH WIND       PRES   REMARKS
ST LOUIS INTL  MOSUNNY   56  38  50 N15G28    30.03R
SPIRIT OF STL  MOSUNNY   55  39  54 N12       30.03R
ST CHARLES     SUNNY     56  41  57 N15G21    30.03R

$$
MOZ072>076-082>087-097>100-106>115-051600-
...SOUTH CENTRAL AND SOUTHEAST MISSOURI...

CITY           SKY/WX    TMP DP  RH WIND       PRES   REMARKS
CAPE GIRARDEAU SUNNY     58  40  51 N18G28    29.97R
FARMINGTON     SUNNY     56  40  55 N12       30.01R
POPLAR BLUFF   SUNNY     61  39  44 N13       29.98R
WEST PLAINS    SUNNY     62  36  37 N10       30.04R

$$




USA.gov is the U.S. government's official web portal to all federal, state and local government web resources and services.